Location: Bryzozowice
(50.3667°N, 18.9667°E)
Time: 18:27:18
(UTC+00:00)

Cosmos 407 Rocket - Pass Details

Date: 24 January 2020
Orbit: 744 x 786 km, 74.0° (Epoch: 24 February)

Event Time Altitude Azimuth Distance (km) Brightness Sun altitude
Rises 18:25:53 0° 334° (NNW) 3,277 7.1 -28.9°
Reaches altitude 10° 18:28:17 10° 333° (NNW) 2,339 6.3 -29.3°
Enters shadow 18:32:34 57° 314° (NW) 912 4.0 -29.9°
